Home > Weather > Poitiers > Past weeks

Flag for France Past Weather in Poitiers, Poitou-Charentes, France — Yesterday and Last 2 Weeks

Now
95 °F

Passing clouds.


Feels Like: 93 °F
Forecast: 63 / 79 °F
Wind: 8 mph from Southwest

Location: Poitiers Airport

Current Time: Aug 27, 2016 at 5:31:05 PM

Latest Report: Aug 27, 2016 at 5:00 PM


Visibility: N/A

Pressure: 29.98 "Hg

Humidity: 26%

Dew Point: 55 °F

Location of PoitiersLocation

Past Weather in Poitiers — Graph

°F

Poitiers Temperature Yesterday

Maximum temperature yesterday: 91 °F (at 4:00 PM)
Minimum temperature yesterday: 66 °F (at 3:30 AM)
Average temperature yesterday: 78 °F

High & Low Weather Summary for the Past Weeks

 TemperatureHumidityPressure
High97 °F (Aug 23, 5:00 PM)100% (Aug 19, 11:30 PM)30.33 "Hg (Aug 19, 11:30 PM)
Low52 °F (Aug 13, 6:00 AM)23% (Aug 23, 5:30 PM)29.83 "Hg (Aug 19, 7:30 AM)
Average73 °F60%30.05 "Hg
* Reported Aug 12 4:00 PM — Aug 27 4:30 PM, Poitiers, Weather by CustomWeather, © 2016

Note: Actual official high and low records may vary slightly from our data, if they occured in-between our weather recording intervals... More about our weather records

Advertising

Poitiers Weather History for the Previous 24 Hours

Scroll right to see more
 ConditionsComfort  
Time TempWeatherWind HumidityBarometerVisibility
4:30 PM
Sat, Aug 27
95 °FPassing clouds.8 mph28%29.98 "HgN/A
4:00 PM93 °FPassing clouds.7 mph32%29.98 "HgN/A
3:30 PM91 °FPassing clouds.9 mph34%29.98 "HgN/A
3:00 PM93 °FExtremely hot.8 mph32%29.98 "HgN/A
2:30 PM91 °FPassing clouds.9 mph32%30.01 "HgN/A
2:00 PM90 °FPassing clouds.9 mph33%30.01 "HgN/A
1:30 PM90 °FPassing clouds.10 mph36%30.01 "HgN/A
1:00 PM88 °FSunny.12 mph40%30.01 "Hg10 mi
12:30 PM86 °FPassing clouds.9 mph38%30.01 "HgN/A
12:00 PM86 °FPassing clouds.9 mph38%30.04 "HgN/A
11:30 AM84 °FPassing clouds.10 mph40%30.04 "HgN/A
11:00 AM82 °FPassing clouds.10 mph45%30.01 "HgN/A
10:30 AM79 °FSunny.10 mph58%30.04 "Hg10 mi
10:00 AM77 °FSunny.13 mph61%30.04 "Hg10 mi
9:30 AM75 °FSunny.9 mph74%30.04 "Hg10 mi
9:00 AM70 °FSunny.5 mph88%30.04 "Hg10 mi
8:30 AM68 °FSunny.3 mph88%30.01 "Hg10 mi
8:00 AM66 °FPassing clouds.3 mph94%30.01 "HgN/A
7:30 AM64 °FClear.2 mph100%30.01 "Hg10 mi
7:00 AM64 °FClear.3 mph100%30.01 "Hg10 mi
6:30 AM64 °FClear.6 mph94%30.01 "Hg10 mi
6:00 AM64 °FClear.5 mph94%30.01 "Hg10 mi
5:30 AM64 °FClear.5 mph94%30.01 "Hg10 mi
5:00 AM66 °FClear.2 mph88%30.01 "Hg10 mi
4:30 AM66 °FClear.3 mph94%30.01 "Hg10 mi
4:00 AM68 °FClear.3 mph88%30.01 "Hg10 mi
3:30 AM68 °FMild.3 mph88%30.01 "HgN/A
3:00 AM70 °FMild.3 mph88%30.01 "HgN/A
2:30 AM70 °FMild.3 mph83%30.01 "HgN/A
2:00 AM70 °FClear.3 mph88%30.01 "Hg10 mi
1:30 AM70 °FClear.2 mph83%30.01 "Hg10 mi
1:00 AM72 °FClear.No wind83%30.01 "Hg10 mi
12:30 AM72 °FClear.No wind83%30.01 "Hg10 mi
12:00 AM72 °FClear.2 mph83%30.01 "Hg10 mi
11:30 PM
Fri, Aug 26
73 °FClear.2 mph78%30.01 "Hg10 mi
11:00 PM73 °FClear.1 mph78%30.01 "Hg10 mi
10:30 PM75 °FClear.3 mph74%30.01 "Hg10 mi
10:00 PM75 °FPassing clouds.5 mph74%30.01 "HgN/A
9:30 PM77 °FSunny.5 mph65%30.01 "Hg10 mi
9:00 PM79 °FWarm.3 mph65%29.98 "HgN/A
8:30 PM81 °FWarm.6 mph62%29.98 "HgN/A
8:00 PM84 °FSunny.8 mph55%29.98 "Hg10 mi
7:30 PM86 °FSunny.8 mph46%29.98 "Hg10 mi
7:00 PM88 °FSunny.8 mph40%29.98 "Hg10 mi
6:30 PM88 °FPassing clouds.7 mph35%29.98 "HgN/A
6:00 PM91 °FPassing clouds.8 mph32%29.98 "HgN/A
5:30 PM91 °FHot.8 mph32%29.98 "HgN/A
5:00 PM90 °FSunny.9 mph36%29.98 "Hg10 mi
Weather by CustomWeather, © 2016

See weather overviewHow to use our weather pages